TimeCST,TemperatureF,Dew PointF,Humidity,Sea Level PressureIn,VisibilityMPH,Wind Direction,Wind SpeedMPH,Gust SpeedMPH,PrecipitationIn,Events,Conditions,WindDirDegrees,DateUTC
12:15 AM,53.8,40.8,62,30.08,10.0,South,3.5,-,N/A,,Overcast,170,2014-03-02 06:15:00
12:35 AM,53.6,40.8,62,30.10,10.0,Calm,Calm,-,N/A,,Overcast,0,2014-03-02 06:35:00
12:55 AM,53.4,41.0,63,30.10,10.0,Calm,Calm,-,N/A,,Overcast,0,2014-03-02 06:55:00
1:15 AM,53.1,41.0,64,30.08,10.0,South,3.5,-,N/A,,Overcast,170,2014-03-02 07:15:00
1:35 AM,53.2,40.8,63,30.07,10.0,Calm,Calm,-,N/A,,Overcast,0,2014-03-02 07:35:00
1:55 AM,53.6,40.6,62,30.08,10.0,Calm,Calm,-,N/A,,Overcast,0,2014-03-02 07:55:00
2:15 AM,53.6,41.0,62,30.08,10.0,Calm,Calm,-,N/A,,Overcast,0,2014-03-02 08:15:00
2:35 AM,53.1,41.2,64,30.07,10.0,Calm,Calm,-,N/A,,Overcast,0,2014-03-02 08:35:00
2:55 AM,52.3,41.7,67,30.07,10.0,Calm,Calm,-,N/A,,Overcast,0,2014-03-02 08:55:00
3:15 AM,51.8,42.3,70,30.06,10.0,Calm,Calm,-,N/A,,Overcast,0,2014-03-02 09:15:00
3:35 AM,51.3,42.8,73,30.06,10.0,Calm,Calm,-,N/A,,Overcast,0,2014-03-02 09:35:00
3:55 AM,51.1,42.8,73,30.07,10.0,Calm,Calm,-,N/A,Rain,Light Rain,0,2014-03-02 09:55:00
4:15 AM,50.2,43.9,79,30.06,10.0,Calm,Calm,-,N/A,,Overcast,0,2014-03-02 10:15:00
4:35 AM,49.5,44.8,84,30.05,10.0,SE,3.5,-,N/A,,Overcast,130,2014-03-02 10:35:00
4:55 AM,50.2,44.1,79,30.05,10.0,Calm,Calm,-,N/A,Rain,Light Rain,0,2014-03-02 10:55:00
5:15 AM,51.1,43.3,75,30.04,10.0,Calm,Calm,-,N/A,Rain,Rain,0,2014-03-02 11:15:00
5:35 AM,50.4,44.4,80,30.04,10.0,Calm,Calm,-,N/A,Rain,Light Rain,0,2014-03-02 11:35:00
5:55 AM,49.1,45.7,88,30.02,10.0,Calm,Calm,-,0.01,,Overcast,0,2014-03-02 11:55:00
6:15 AM,48.4,48.0,99,30.01,7.0,Calm,Calm,-,N/A,,Overcast,0,2014-03-02 12:15:00
6:35 AM,48.2,48.2,100,30.00,7.0,SE,3.5,-,N/A,Rain-Thunderstorm,Rain,130,2014-03-02 12:35:00
6:55 AM,48.7,48.2,98,30.00,10.0,Calm,Calm,-,N/A,,Overcast,0,2014-03-02 12:55:00
7:15 AM,50.0,45.9,86,30.01,10.0,Calm,Calm,-,N/A,Thunderstorm,Overcast,0,2014-03-02 13:15:00
7:35 AM,50.2,45.7,85,30.01,10.0,Calm,Calm,-,0.01,,Overcast,0,2014-03-02 13:35:00
7:55 AM,50.4,46.2,86,30.02,10.0,NNW,3.5,-,0.01,,Overcast,340,2014-03-02 13:55:00
8:15 AM,49.8,47.3,91,30.02,7.0,Calm,Calm,-,N/A,,Overcast,0,2014-03-02 14:15:00
8:35 AM,50.2,47.7,91,30.02,7.0,Calm,Calm,-,N/A,,Overcast,0,2014-03-02 14:35:00
8:55 AM,50.4,47.5,90,30.03,10.0,Calm,Calm,-,N/A,,Overcast,0,2014-03-02 14:55:00
9:15 AM,50.4,46.9,88,30.04,7.0,NNW,4.6,-,N/A,,Overcast,330,2014-03-02 15:15:00
9:35 AM,49.3,48.0,95,30.06,3.0,North,16.1,-,N/A,Rain-Thunderstorm,Light Thunderstorms and Rain,350,2014-03-02 15:35:00
9:55 AM,41.9,40.3,94,30.10,1.5,North,13.8,25.3,N/A,Rain,Light Rain,350,2014-03-02 15:55:00
10:15 AM,37.0,37.0,100,30.14,1.2,North,21.9,27.6,N/A,,Light Drizzle,360,2014-03-02 16:15:00
10:35 AM,35.1,35.1,100,30.14,1.8,North,8.1,-,0.01,Rain,Light Rain,360,2014-03-02 16:35:00
10:55 AM,34.5,34.5,100,30.10,4.0,ESE,9.2,-,0.06,Rain,Rain,110,2014-03-02 16:55:00
11:15 AM,35.1,35.1,100,30.10,0.5,SE,3.5,-,0.14,Snow,Light Snow,130,2014-03-02 17:15:00
11:35 AM,36.0,36.0,100,30.09,2.5,Calm,Calm,-,0.19,Rain,Rain,0,2014-03-02 17:35:00
11:55 AM,36.5,36.5,100,30.08,2.0,NNW,6.9,-,0.21,Rain,Light Rain,340,2014-03-02 17:55:00
12:10 PM,36.5,36.5,100,30.08,4.0,NNW,8.1,-,0.01,Rain,Light Rain,340,2014-03-02 18:10:00
12:35 PM,36.0,36.0,100,30.08,2.0,North,6.9,-,0.04,Rain,Rain,350,2014-03-02 18:35:00
12:50 PM,36.0,36.0,100,30.08,2.5,North,8.1,-,0.06,Rain,Light Rain,350,2014-03-02 18:50:00
1:15 PM,35.6,35.6,100,30.10,1.8,NNW,9.2,-,0.03,Rain,Light Rain,340,2014-03-02 19:15:00
1:35 PM,35.2,35.2,100,30.09,1.2,North,6.9,-,0.09,Snow,Light Snow,350,2014-03-02 19:35:00
1:55 PM,34.9,34.9,100,30.07,1.5,North,5.8,-,0.23,Snow,Light Snow,10,2014-03-02 19:55:00
2:15 PM,35.1,35.1,100,30.08,7.0,North,8.1,-,0.01,Rain,Light Rain,360,2014-03-02 20:15:00
2:35 PM,35.2,35.2,100,30.10,10.0,NNW,8.1,-,0.02,Rain,Rain,340,2014-03-02 20:35:00
2:55 PM,35.1,35.1,100,30.08,1.0,North,5.8,-,0.14,Snow,Light Snow,10,2014-03-02 20:55:00
3:15 PM,34.7,34.7,100,30.07,1.2,North,4.6,-,0.08,Snow,Light Snow,350,2014-03-02 21:15:00
3:35 PM,34.3,34.3,100,30.10,1.2,NW,6.9,-,0.16,Snow,Light Snow,320,2014-03-02 21:35:00
3:55 PM,34.0,34.0,100,30.07,2.5,North,9.2,-,0.22,Snow-Thunderstorm,Light Thunderstorms and Snow,10,2014-03-02 21:55:00
4:15 PM,34.0,34.0,100,30.06,3.0,NE,4.6,-,0.04,,Overcast,40,2014-03-02 22:15:00
4:35 PM,33.8,33.8,100,30.07,1.8,North,4.6,-,0.10,Snow,Light Snow,360,2014-03-02 22:35:00
4:50 PM,33.8,33.8,100,30.08,3.0,NNW,3.5,-,0.12,,Overcast,340,2014-03-02 22:50:00
5:15 PM,33.6,33.6,100,30.08,4.0,North,8.1,-,0.04,,Overcast,360,2014-03-02 23:15:00
5:35 PM,33.4,33.4,100,30.08,4.0,NNE,4.6,-,0.09,,Overcast,30,2014-03-02 23:35:00
5:55 PM,33.1,33.1,100,30.10,3.0,North,10.4,-,0.16,Snow,Light Snow,10,2014-03-02 23:55:00
6:15 PM,32.4,32.4,100,30.11,2.5,North,11.5,-,0.06,Snow,Light Snow,350,2014-03-03 00:15:00
6:35 PM,32.0,32.0,100,30.11,3.0,North,11.5,-,0.12,Snow,Light Snow,10,2014-03-03 00:35:00
6:55 PM,32.0,32.0,100,30.11,2.5,North,9.2,-,0.18,Snow,Light Snow,10,2014-03-03 00:55:00
7:15 PM,31.5,31.5,100,30.11,4.0,North,5.8,-,0.02,,Overcast,10,2014-03-03 01:15:00
7:35 PM,31.1,31.1,100,30.11,4.0,NNE,5.8,-,0.02,Snow,Light Snow,20,2014-03-03 01:35:00
7:55 PM,30.4,30.4,100,30.11,5.0,NNE,9.2,-,0.02,Snow,Light Snow,30,2014-03-03 01:55:00
8:15 PM,30.2,30.2,100,30.10,4.0,NNE,8.1,-,N/A,Snow,Light Snow,20,2014-03-03 02:15:00
8:35 PM,30.2,30.2,100,30.08,4.0,NE,6.9,-,0.01,,Overcast,40,2014-03-03 02:35:00
8:55 PM,30.0,30.0,100,30.10,5.0,NNE,9.2,-,0.01,Snow,Light Snow,20,2014-03-03 02:55:00
9:15 PM,30.0,30.0,100,30.09,2.5,North,9.2,-,N/A,Snow,Light Snow,10,2014-03-03 03:15:00
9:30 PM,30.4,30.4,100,30.09,2.5,North,11.5,16.1,N/A,Snow,Light Snow,10,2014-03-03 03:30:00
9:55 PM,29.8,29.8,100,30.09,1.8,NNE,4.6,-,N/A,Snow,Light Snow,30,2014-03-03 03:55:00
10:15 PM,29.1,29.1,100,30.08,1.5,NNE,6.9,-,N/A,Snow,Light Snow,30,2014-03-03 04:15:00
10:35 PM,29.3,29.3,100,30.10,1.5,North,6.9,-,N/A,Snow,Light Snow,10,2014-03-03 04:35:00
10:55 PM,29.1,29.1,100,30.08,2.0,NNE,5.8,-,N/A,Snow,Light Snow,20,2014-03-03 04:55:00
11:15 PM,29.3,29.3,100,30.07,1.5,NNE,6.9,-,N/A,Snow,Light Snow,30,2014-03-03 05:15:00
11:35 PM,28.9,28.9,100,30.06,1.2,NNE,9.2,-,N/A,Snow,Light Snow,20,2014-03-03 05:35:00
11:55 PM,28.0,28.0,100,30.08,1.5,North,5.8,-,N/A,Snow,Light Snow,10,2014-03-03 05:55:00